{"data":{"norad_id":62726,"epoch":"2026-09-23T18:39:01.528128Z","epoch_age_seconds":66470,"freshness":"FRESH","line1":"1 62726U 25012B   26266.77710102  .00003299  00000+0  14766-3 0  9999","line2":"2 62726  97.4153 338.4592 0007310 294.8549  65.1927 15.21963804 93247","mean_motion":15.21963804,"eccentricity":0.000731,"inclination_deg":97.4153,"raan_deg":338.4592,"arg_perigee_deg":294.8549,"mean_anomaly_deg":65.1927,"bstar":0.00014766,"rev_number":9324,"period_min":94.61460227999,"perigee_km":494.88984149647,"apogee_km":504.94555746711,"semimajor_km":6878.0546994818,"source":"CELESTRAK","updated_at":"2026-09-24T09:00:26.510172Z"}}